Miscellaneous Local Product
Issued by NWS Hastings, NE

Home | Current Version | Previous Version | Text Only | Print | Product List | Glossary Off
Versions: 1 2 3 4 5 6 7 8 9 10 11 12 13 14 15 16 17 18 19 20 21 22 23 24 25 26 27 28 29 30 31 32 33 34 35 36 37 38 39 40 41 42 43 44 45 46 47 48 49 50

000
AXUS43 KGID 191602
MISGRI

GID CWA HOURLY WEATHER ROUNDUP
NATIONAL WEATHER SERVICE HASTINGS NE
1100 AM CDT TUE AUG 19 2014

NOTE: "FAIR" INDICATES FEW OR NO CLOUDS BELOW 12,000 FEET WITH NO
SIGNIFICANT WEATHER AND/OR OBSTRUCTIONS TO VISIBILITY.

...SOUTH CENTRAL NEBRASKA...

CITY           SKY/WX    TMP DP  RH WIND       PRES   REMARKS
GRAND ISLAND   SUNNY     80  64  58 SE8       29.89R
HASTINGS       SUNNY     80  64  58 SE7       29.88S
KEARNEY        SUNNY     79  66  65 E8        29.89F
ORD            SUNNY     78  63  59 SE6       29.87S
AURORA         SUNNY     81  65  58 SE6       29.88S
LEXINGTON      SUNNY     80  67  63 S6        29.89S
HOLDREGE       SUNNY     80  59  48 S5        29.90S
HEBRON         SUNNY     82  68  63 CALM      29.86F

...NEBRASKA PANHANDLE...

CITY           SKY/WX    TMP DP  RH WIND       PRES   REMARKS
CHADRON        SUNNY     83  55  38 S7        29.84S
ALLIANCE       SUNNY     78  55  44 S9        29.90F
SCOTTSBLUFF    SUNNY     74  58  57 E7        29.90F
SIDNEY         SUNNY     80  55  42 VRB6      29.94F

...WESTERN AND NORTH CENTRAL NEBRASKA...

CITY           SKY/WX    TMP DP  RH WIND       PRES   REMARKS
VALENTINE      SUNNY     82  57  42 SE8       29.87S
AINSWORTH      SUNNY     78  60  53 SE6       29.89R
ONEILL         SUNNY     79  61  54 CALM      29.88S
BROKEN BOW     SUNNY     79  62  56 SE7       29.89S
IMPERIAL       SUNNY     78  57  48 E7        29.90F
NORTH PLATTE   SUNNY     78  66  66 SE6       29.88F
MCCOOK         SUNNY     79  58  48 MISG      29.89F

...EASTERN NEBRASKA...

CITY           SKY/WX    TMP DP  RH WIND       PRES   REMARKS
NORFOLK        SUNNY     78  61  55 CALM      29.87R
SO SIOUX CITY  SUNNY     79  65  62 NW5       29.83S
TEKAMAH        SUNNY     79  65  62 W5        29.85R
COLUMBUS       SUNNY    N/A N/A N/A CALM      29.87F
ALBION         MOSUNNY   76  62  62 S3        29.88S
OMAHA EPPLEY   SUNNY     81  64  56 CALM      29.84R
OFFUTT AFB     SUNNY     82  68  62 SW6       29.84R
MILLARD        SUNNY     82  63  52 CALM      29.85R
LINCOLN        SUNNY     83  63  50 CALM      29.86F
NEBRASKA CITY  SUNNY     81  67  63 W3        29.85S
BEATRICE       SUNNY     82  71  70 NE3       29.86R
FALLS CITY     SUNNY     84  72  67 VRB3      29.84R

...NORTHERN KANSAS...

CITY           SKY/WX    TMP DP  RH WIND       PRES   REMARKS
GOODLAND       PTSUNNY   76  57  51 NW5       29.93S
HILL CITY      SUNNY     78  61  55 CALM      29.89S
NORTON         SUNNY     81  55  41 CALM      29.88F
PHILLIPSBURG   SUNNY     81  59  47 CALM      29.88S
SMITH CENTER   SUNNY     82  57  42 CALM      29.88S
BELOIT           N/A     82  64  54 E3        29.85S
HAYS           MOSUNNY   84  61  45 SW8       29.88R
RUSSELL        SUNNY     85  58  39 CALM      29.86S
CONCORDIA      SUNNY     82  71  69 NE7       29.86F
SALINA         SUNNY     85  70  60 E7        29.87R
TOPEKA         SUNNY     84  72  67 W5        29.84R



USA.gov is the U.S. government's official web portal to all federal, state and local government web resources and services.